Flag for Germany Weather past 2 weeks in Bad Oeynhausen, North Rhine-Westphalia, Germany

Now
75 °F

Mild.


Feels Like: 77 °F
Forecast: 52 / 75 °F
Wind: 3 mph from Southwest

Location: Bueckeburg

Current Time: Aug 1, 2015 at 4:43:58 PM

Latest Report: Aug 1, 2015 at 3:20 PM


Visibility: 4 mi

Pressure: 29.98 "Hg

Humidity: 36%

Dew point: 46 °F

Location of Bad OeynhausenLocation

Historic Weather in Bad Oeynhausen — Graph

°F

Bad Oeynhausen temperature yesterday

Maximum temperature yesterday: 64 °F (at 3:20 PM)
Minimum temperature yesterday: 46 °F (at 4:20 AM)
Average temperature yesterday: 56 °F

Past Weeks' High & Low Weather Summary

 TemperatureHumidityPressure
High90 °F (Jul 17, 3:20 PM)100% (Jul 19, 10:20 AM)30.12 "Hg (Jul 19, 10:20 AM)
Low46 °F (Jul 31, 4:20 AM)31% (Jul 17, 4:20 PM)29.47 "Hg (Jul 25, 12:20 PM)
Average64 °F72%29.85 "Hg
* Reported Jul 17 3:20 PM — Aug 1 3:20 PM, Bad Oeynhausen, Weather by CustomWeather, © 2015

Note: Actual official high and low records may vary slightly from our data, if they occured in-between our weather recording intervals... More about our weather records

Advertising

Bad Oeynhausen weather history for previous 24 hours

 ConditionsComfort  
Time TempWeatherWind HumidityBarometerVisibility
3:20 PM
Sat, Aug 1
75 °FMild.3 mph36%29.98 "Hg4 mi
2:20 PM73 °FMild.2 mph38%29.98 "Hg4 mi
1:20 PM72 °FMild.7 mph41%30.01 "Hg5 mi
12:20 PM68 °FMild.6 mph46%30.01 "HgN/A
11:20 AM68 °FMild.9 mph43%30.01 "HgN/A
10:20 AM64 °FMild.2 mph52%30.01 "HgN/A
9:20 AM59 °FCool.1 mph68%30.04 "HgN/A
8:20 AM52 °FCool.No wind88%30.04 "HgN/A
7:20 AM48 °FCool.1 mph94%30.04 "HgN/A
6:20 AM46 °FCool.No wind93%30.04 "HgN/A
5:20 AM46 °FPassing clouds.1 mph93%30.04 "HgN/A
4:20 AM46 °FOvercast.1 mph93%30.04 "HgN/A
3:20 AM46 °FOvercast.No wind93%30.07 "HgN/A
2:20 AM46 °FPassing clouds.1 mph93%30.07 "HgN/A
1:20 AM46 °FPassing clouds.1 mph93%30.07 "HgN/A
12:20 AM48 °FPassing clouds.1 mph94%30.07 "HgN/A
11:20 PM
Fri, Jul 31
50 °FPassing clouds.No wind88%30.07 "HgN/A
10:20 PM52 °FPassing clouds.1 mph82%30.07 "HgN/A
9:20 PM57 °FPassing clouds.2 mph72%30.07 "HgN/A
8:20 PM61 °FPassing clouds.2 mph52%30.07 "HgN/A
7:20 PM63 °FBroken clouds.3 mph45%30.07 "HgN/A
6:20 PM64 °FBroken clouds.5 mph43%30.07 "HgN/A
5:20 PM64 °FBroken clouds.5 mph43%30.09 "HgN/A
4:20 PM64 °FBroken clouds.6 mph43%30.09 "HgN/A
Weather by CustomWeather, © 2015

See weather overviewHow to use our weather pages